Retour au catalogue

STARLINK-31169

ActifCommunicationsVLEO
NORAD 58809·PAYLOAD·🇺🇸 United States

Lancé Jan 15, 2024 depuis Cape Canaveral Space Force Station

Loading…

Prochains Passages (prochaines 24 heures)

TLE

FraisSource: CelesTrak SupGP

Époque: Sep 15, 2026, 02:50 UTC

1 58809C 24012Y   26258.11854167 -.00015474  00000+0 -56059-3 0  2583
2 58809  43.0023 175.5449 0001415 272.6852 157.3341 15.27579219    15

Suivez STARLINK-31169 en temps réel avec AllMySat

Download on the App Store